This demonstration page uses our WeatherBlox Daily Observations layout. Learn more.

Left ArrowRight Arrow

40.92501, -98.34201

Hourly Observations for June 5, 2020

Temp ( °F °C ) Dew Point ( °F °C ) Humidity (%) Winds ( mph kmh ) Pressure ( in mb ) Visibility ( mi km ) Precip ( " mm )
12:53 am 00:53 Clear 74 23.3 55 12.8 52 52 S 13 20 29.76 1008 10 16 0.00 0.00
1:53 am 01:53 Mostly Clear with Light Rain 73 22.8 58 14.4 59 59 E 5 7 29.79 1009 7 11 0.00 0.00
2:02 am 02:02 Partly Cloudy with Thunderstorms 71 21.7 60 15.6 68 68 SSE 8 13 29.77 1008 10 16 0.03 0.76
2:17 am 02:17 Mostly Clear with Nearby Thunderstorms 72 22.2 59 15 64 64 E 9 15 29.76 1008 10 16 0.03 0.76
2:27 am 02:27 Mostly Clear 70 21.1 60 15.6 71 71 NNE 8 13 29.77 1008 10 16 0.03 0.76
2:40 am 02:40 Partly Cloudy with Thunderstorms 71 21.7 59 15 66 66 NNW 13 20 29.80 1009 10 16 0.03 0.76
2:53 am 02:53 Mostly Cloudy with Thunderstorms 69 20.6 61 16.1 76 76 ENE 6 9 29.79 1009 5 8 0.09 2.29
3:09 am 03:09 Partly Cloudy with Nearby Thunderstorms 69 20.6 61 16.1 76 76 Calm 29.78 1008 10 16 0.00 0.00
3:23 am 03:23 Clear 67 19.4 60 15.6 79 79 Calm 29.78 1009 10 16 0.00 0.00
3:53 am 03:53 Clear 67 19.4 61 16.1 81 81 S 8 13 29.79 1009 10 16 0.00 0.00
4:53 am 04:53 Clear 66 18.9 61 16.1 84 84 undefined N/A 29.79 1009 10 16 0.00 0.00
5:53 am 05:53 Clear 65 18.3 60 15.6 84 84 W 7 11 29.82 1010 10 16 0.00 0.00
6:53 am 06:53 Sunny 66 18.9 61 16.1 84 84 VRB 5 7 29.86 1011 10 16 0.00 0.00
7:53 am 07:53 Sunny 73 22.8 61 16.1 66 66 Calm 29.88 1012 10 16 0.00 0.00
8:53 am 08:53 Sunny 76 24.4 62 16.7 62 62 NE 5 7 29.89 1012 10 16 0.00 0.00
9:53 am 09:53 Sunny 80 26.7 64 17.8 58 58 E 7 11 29.91 1013 10 16 0.00 0.00
10:53 am 10:53 Sunny 83 28.3 66 18.9 57 57 E 13 20 29.91 1013 10 16 0.00 0.00
11:53 am 11:53 Sunny 85 29.4 64 17.8 50 50 E 17 28 29.91 1013 10 16 0.00 0.00
12:53 pm 12:53 Sunny 88 31.1 63 17.2 43 43 E 15 24 29.90 1012 10 16 0.00 0.00
1:53 pm 13:53 Sunny 89 31.7 62 16.7 41 41 ESE 15 24 29.89 1012 10 16 0.00 0.00
2:53 pm 14:53 Sunny 91 32.8 62 16.7 38 38 E 16 26 29.89 1012 10 16 0.00 0.00
3:53 pm 15:53 Sunny 92 33.3 62 16.7 37 37 ESE 12 19 29.88 1012 10 16 0.00 0.00
4:53 pm 16:53 Sunny 92 33.3 63 17.2 38 38 ESE 9 15 29.86 1011 10 16 0.00 0.00
5:53 pm 17:53 Sunny 92 33.3 63 17.2 38 38 SE 10 17 29.85 1011 10 16 0.00 0.00
6:53 pm 18:53 Sunny 92 33.3 63 17.2 38 38 SE 8 13 29.85 1011 10 16 0.00 0.00
7:53 pm 19:53 Sunny 89 31.7 67 19.4 48 48 ESE 9 15 29.85 1011 10 16 0.00 0.00
8:53 pm 20:53 Sunny 85 29.4 68 20 57 57 ESE 9 15 29.85 1011 10 16 0.00 0.00
9:53 pm 21:53 Clear 83 28.3 68 20 61 61 ESE 8 13 29.87 1012 10 16 0.00 0.00
10:53 pm 22:53 Clear 81 27.2 67 19.4 62 62 SE 9 15 29.89 1012 10 16 0.00 0.00
11:53 pm 23:53 Clear 80 26.7 68 20 67 67 SE 10 17 29.89 1012 10 16 0.00 0.00

Powered by AerisWeather